DW1234 Weather Reports


Display with metric or nautical units.
time (UTC)temp
F
wind
direction
speed
MPH
gust
MPH
rain 1hr
in
rain 24hr
in
rain mn
in
humidity
%
barometer
mb
20260507163724 69 167 11.0 22.0 0.00 0.00 0.00 32 1011.3
20260507163234 69 200 14.0 22.0 0.00 0.00 0.00 33 1011.4
20260507163036 67 229 11.0 19.0 0.00 0.00 0.00 34 1011.3
20260507162745 67 214 12.0 21.0 0.00 0.00 0.00 34 1011.6
20260507162226 67 236 13.0 21.0 0.00 0.00 0.00 36 1011.6
20260507161753 66 215 13.0 20.0 0.00 0.00 0.00 35 1011.7
20260507161519 66 213 13.0 20.0 0.00 0.00 0.00 37 1011.7
20260507161224 66 225 13.0 20.0 0.00 0.00 0.00 39 1011.7
20260507160732 66 216 13.0 20.0 0.00 0.00 0.00 38 1011.8
20260507160243 67 221 12.0 20.0 0.00 0.00 0.00 41 1012.0
20260507160050 66 200 12.0 20.0 0.00 0.00 0.00 43 1011.9
20260507155726 65 231 11.0 16.0 0.00 0.00 0.00 41 1012.1
20260507155238 64 216 9.0 16.0 0.00 0.00 0.00 44 1012.2
20260507154722 64 219 10.0 16.0 0.00 0.00 0.00 45 1012.2
20260507154543 64 242 11.0 16.0 0.00 0.00 0.00 46 1012.1
20260507154230 64 239 11.0 17.0 0.00 0.00 0.00 47 1012.2
20260507153737 64 220 10.0 21.0 0.00 0.00 0.00 45 1012.2
20260507153249 63 244 12.0 21.0 0.00 0.00 0.00 44 1012.3
20260507153046 63 230 12.0 16.0 0.00 0.00 0.00 44 1012.2
20260507152731 64 186 9.0 16.0 0.00 0.00 0.00 47 1012.3
20260507152242 64 211 8.0 16.0 0.00 0.00 0.00 48 1012.3
20260507151725 62 239 12.0 15.0 0.00 0.00 0.00 47 1012.4
20260507151550 62 254 11.0 15.0 0.00 0.00 0.00 46 1012.3
20260507151239 63 193 11.0 15.0 0.00 0.00 0.00 48 1012.4
20260507150744 62 232 8.0 16.0 0.00 0.00 0.00 52 1012.4
20260507150227 61 235 10.0 16.0 0.00 0.00 0.00 51 1012.5
20260507150052 60 250 10.0 16.0 0.00 0.00 0.00 52 1012.4
20260507145738 61 225 10.0 18.0 0.00 0.00 0.00 52 1012.6
20260507145220 60 214 8.0 18.0 0.00 0.00 0.00 53 1012.6
20260507144734 60 225 10.0 16.0 0.00 0.00 0.00 56 1012.6
20260507144616 59 221 9.0 16.0 0.00 0.00 0.00 55 1012.5
20260507144246 60 211 7.0 16.0 0.00 0.00 0.00 54 1012.6
20260507143726 59 192 10.0 17.0 0.00 0.00 0.00 56 1012.7
20260507143235 59 228 13.0 17.0 0.00 0.00 0.00 55 1012.7
20260507143052 58 222 12.0 17.0 0.00 0.00 0.00 56 1012.7
20260507142742 58 250 13.0 18.0 0.00 0.00 0.00 57 1012.7
20260507142223 58 214 9.0 18.0 0.00 0.00 0.00 57 1012.8
20260507141754 57 221 11.0 16.0 0.00 0.00 0.00 58 1012.8
20260507141520 57 223 10.0 18.0 0.00 0.00 0.00 60 1012.8
20260507141246 57 227 9.0 18.0 0.00 0.00 0.00 59 1012.9
20260507140728 57 220 10.0 15.0 0.00 0.00 0.00 60 1012.9
20260507140238 56 228 10.0 18.0 0.00 0.00 0.00 62 1012.9
20260507140020 55 216 11.0 19.0 0.00 0.00 0.00 61 1013.0
20260507135750 56 238 11.0 19.0 0.00 0.00 0.00 62 1013.0
20260507135236 55 229 12.0 20.0 0.00 0.00 0.00 62 1013.0
20260507134747 55 223 12.0 20.0 0.00 0.00 0.00 63 1013.0
20260507134600 55 239 10.0 17.0 0.00 0.00 0.00 63 1013.0
20260507134232 55 243 10.0 17.0 0.00 0.00 0.00 64 1013.1
20260507133742 54 234 10.0 17.0 0.00 0.00 0.00 66 1013.1
20260507133225 53 231 12.0 17.0 0.00 0.00 0.00 67 1013.1
20260507133004 53 250 12.0 20.0 0.00 0.00 0.00 66 1013.1
20260507132737 53 225 11.0 20.0 0.00 0.00 0.00 67 1013.1
20260507132246 53 211 11.0 20.0 0.00 0.00 0.00 68 1013.2
20260507131729 52 216 10.0 15.0 0.00 0.00 0.00 69 1013.2
20260507131506 51 221 9.0 15.0 0.00 0.00 0.00 70 1013.2
20260507131237 51 184 9.0 15.0 0.00 0.00 0.00 71 1013.2
20260507130746 51 218 10.0 15.0 0.00 0.00 0.00 72 1013.3
20260507130229 50 211 10.0 14.0 0.00 0.00 0.00 73 1013.4
20260507130006 49 238 8.0 14.0 0.00 0.00 0.00 74 1013.4
20260507125741 50 238 11.0 14.0 0.00 0.00 0.00 74 1013.4
20260507125225 49 217 9.0 12.0 0.00 0.00 0.00 75 1013.5
20260507124735 49 242 9.0 17.0 0.00 0.00 0.00 76 1013.5
20260507124516 48 230 8.0 17.0 0.00 0.00 0.00 76 1013.5
20260507124230 48 231 11.0 17.0 0.00 0.00 0.00 76 1013.5
20260507123738 48 229 11.0 16.0 0.00 0.00 0.00 77 1013.4
20260507123245 47 215 11.0 16.0 0.00 0.00 0.00 77 1013.4
20260507123051 47 234 9.0 15.0 0.00 0.00 0.00 78 1013.4
20260507122735 47 209 11.0 15.0 0.00 0.00 0.00 78 1013.4
20260507122308 47 238 8.0 12.0 0.00 0.00 0.00 79 1013.4
20260507121729 46 225 9.0 14.0 0.00 0.00 0.00 79 1013.5
20260507121532 46 226 9.0 14.0 0.00 0.00 0.00 80 1013.6
20260507121243 46 219 10.0 14.0 0.00 0.00 0.00 80 1013.5
20260507120726 45 225 9.0 14.0 0.00 0.00 0.00 80 1013.4
20260507120238 45 210 9.0 12.0 0.00 0.00 0.00 81 1013.4
20260507120036 44 209 9.0 12.0 0.00 0.00 0.00 81 1013.5
20260507115745 44 198 8.0 11.0 0.00 0.00 0.00 81 1013.4
20260507115226 44 202 7.0 10.0 0.00 0.00 0.00 80 1013.4
20260507114738 44 210 8.0 11.0 0.00 0.00 0.00 80 1013.4
20260507114542 44 220 7.0 11.0 0.00 0.00 0.00 80 1013.4
20260507114252 44 209 7.0 10.0 0.00 0.00 0.00 80 1013.3
20260507113741 44 211 7.0 10.0 0.00 0.00 0.00 80 1013.4
20260507113224 44 221 7.0 10.0 0.00 0.00 0.00 80 1013.4
20260507113100 44 213 7.0 10.0 0.00 0.00 0.00 80 1013.4
20260507113006 44 213 7.0 10.0 0.00 0.00 0.00 79 1013.4
20260507112735 44 216 8.0 10.0 0.00 0.00 0.00 79 1013.4
20260507112243 44 200 8.0 12.0 0.00 0.00 0.00 79 1013.4
20260507111725 44 209 9.0 12.0 0.00 0.00 0.00 79 1013.4
20260507111509 44 211 8.0 12.0 0.00 0.00 0.00 79 1013.5
20260507111239 44 213 9.0 12.0 0.00 0.00 0.00 79 1013.4
20260507110747 45 217 9.0 14.0 0.00 0.00 0.00 79 1013.4
20260507110232 44 217 9.0 14.0 0.00 0.00 0.00 79 1013.3
20260507110014 44 229 8.0 13.0 0.00 0.00 0.00 79 1013.4
20260507105743 45 214 8.0 12.0 0.00 0.00 0.00 79 1013.3
20260507105228 45 208 9.0 11.0 0.00 0.00 0.00 79 1013.3
20260507104741 45 211 8.0 11.0 0.00 0.00 0.00 78 1013.3
20260507104520 44 214 8.0 11.0 0.00 0.00 0.00 78 1013.3
20260507104226 45 218 8.0 13.0 0.00 0.00 0.00 78 1013.3
20260507103734 45 226 8.0 13.0 0.00 0.00 0.00 78 1013.3
20260507103246 45 209 8.0 10.0 0.00 0.00 0.00 78 1013.2
20260507103024 44 203 8.0 11.0 0.00 0.00 0.00 77 1013.3
20260507102729 45 194 7.0 10.0 0.00 0.00 0.00 77 1013.3
20260507102241 45 215 7.0 12.0 0.00 0.00 0.00 77 1013.3
20260507101725 45 207 8.0 12.0 0.00 0.00 0.00 77 1013.2
20260507101537 45 211 7.0 12.0 0.00 0.00 0.00 77 1013.3
20260507101238 45 188 8.0 11.0 0.00 0.00 0.00 76 1013.3
20260507100746 45 199 8.0 11.0 0.00 0.00 0.00 76 1013.3
20260507100231 45 216 8.0 12.0 0.00 0.00 0.00 76 1013.4
20260507100003 45 221 7.0 12.0 0.00 0.00 0.00 76 1013.5
20260507095745 46 204 7.0 12.0 0.00 0.00 0.00 76 1013.4
20260507095237 46 207 7.0 11.0 0.00 0.00 0.00 75 1013.4
20260507094750 46 213 7.0 14.0 0.00 0.00 0.00 76 1013.5
20260507094549 45 234 9.0 14.0 0.00 0.00 0.00 76 1013.6
20260507094232 46 203 10.0 14.0 0.00 0.00 0.00 76 1013.5
20260507093743 46 213 8.0 11.0 0.00 0.00 0.00 75 1013.5
20260507093226 46 213 9.0 12.0 0.00 0.00 0.00 75 1013.6
20260507093046 45 211 8.0 12.0 0.00 0.00 0.00 75 1013.7
20260507092736 45 199 9.0 12.0 0.00 0.00 0.00 75 1013.7
20260507092307 45 227 8.0 12.0 0.00 0.00 0.00 74 1013.7
20260507091728 45 227 8.0 10.0 0.00 0.00 0.00 74 1013.8
20260507091531 45 225 8.0 11.0 0.00 0.00 0.00 74 1013.8
20260507091239 45 231 8.0 11.0 0.00 0.00 0.00 74 1013.8
20260507090749 45 205 8.0 11.0 0.00 0.00 0.00 73 1013.9
20260507090232 45 246 8.0 12.0 0.00 0.00 0.00 73 1013.9
20260507090034 45 207 8.0 12.0 0.00 0.00 0.00 73 1014.1
20260507085744 45 200 8.0 10.0 0.00 0.00 0.00 73 1013.9
20260507085225 45 209 8.0 12.0 0.00 0.00 0.00 72 1014.1
20260507084733 45 230 8.0 11.0 0.00 0.00 0.00 72 1014.2
20260507084536 45 213 8.0 11.0 0.00 0.00 0.00 72 1014.3
20260507084245 45 227 9.0 12.0 0.00 0.00 0.00 72 1014.2
20260507083726 45 225 8.0 12.0 0.00 0.00 0.00 71 1014.2
20260507083237 45 203 8.0 10.0 0.00 0.00 0.00 71 1014.3
20260507083032 44 218 7.0 11.0 0.00 0.00 0.00 70 1014.4
20260507082233 45 211 8.0 11.0 0.00 0.00 0.00 70 1014.3
20260507081804 45 228 8.0 11.0 0.00 0.00 0.00 69 1014.4
20260507081533 44 226 8.0 11.0 0.00 0.00 0.00 69 1014.5
20260507081226 45 215 8.0 11.0 0.00 0.00 0.00 69 1014.5
20260507080733 45 219 7.0 10.0 0.00 0.00 0.00 68 1014.5
20260507080243 45 215 8.0 10.0 0.00 0.00 0.00 67 1014.7
20260507080039 44 228 8.0 10.0 0.00 0.00 0.00 67 1014.8
20260507075726 45 199 8.0 10.0 0.00 0.00 0.00 67 1014.7
20260507075256 45 211 8.0 11.0 0.00 0.00 0.00 66 1014.7
20260507074746 45 209 8.0 11.0 0.00 0.00 0.00 65 1014.7
20260507074520 44 217 8.0 11.0 0.00 0.00 0.00 65 1014.9
20260507074232 45 215 8.0 10.0 0.00 0.00 0.00 65 1014.7
20260507073740 44 216 8.0 10.0 0.00 0.00 0.00 65 1014.8
20260507073306 44 223 7.0 9.0 0.00 0.00 0.00 64 1014.8
20260507073101 44 221 6.0 9.0 0.00 0.00 0.00 63 1015.0
20260507072728 44 211 7.0 10.0 0.00 0.00 0.00 63 1014.9
20260507072239 44 211 6.0 10.0 0.00 0.00 0.00 61 1015.0
20260507071749 44 204 6.0 9.0 0.00 0.00 0.00 61 1015.1
20260507071557 44 210 6.0 9.0 0.00 0.00 0.00 60 1015.2
20260507071234 45 209 6.0 9.0 0.00 0.00 0.00 59 1015.2
20260507070743 45 197 6.0 8.0 0.00 0.00 0.00 59 1015.2
20260507070226 45 217 6.0 7.0 0.00 0.00 0.00 58 1015.3
20260507065737 45 199 6.0 8.0 0.00 0.00 0.00 58 1015.4
20260507065242 45 194 5.0 8.0 0.00 0.00 0.00 57 1015.4
20260507064726 45 205 5.0 8.0 0.00 0.00 0.00 56 1015.5
20260507064503 45 177 5.0 8.0 0.00 0.00 0.00 56 1015.7
20260507064239 45 203 5.0 8.0 0.00 0.00 0.00 56 1015.6
20260507063749 45 217 6.0 8.0 0.00 0.00 0.00 55 1015.6
20260507063238 46 196 6.0 9.0 0.00 0.00 0.00 55 1015.7
20260507063048 45 197 6.0 9.0 0.00 0.00 0.00 54 1015.8
20260507062749 46 209 5.0 8.0 0.00 0.00 0.00 54 1015.7
20260507062239 46 210 6.0 8.0 0.00 0.00 0.00 52 1015.8
20260507061747 46 207 4.0 6.0 0.00 0.00 0.00 51 1015.8
20260507061526 45 196 3.0 5.0 0.00 0.00 0.00 51 1015.9
20260507061234 46 182 3.0 6.0 0.00 0.00 0.00 50 1015.8
20260507060745 46 196 3.0 6.0 0.00 0.00 0.00 50 1015.9
20260507060227 46 189 4.0 6.0 0.00 0.00 0.00 49 1015.9
20260507060048 46 198 4.0 6.0 0.00 0.00 0.00 49 1016.0
20260507055734 46 202 4.0 6.0 0.00 0.00 0.00 49 1015.9
20260507055246 47 197 4.0 7.0 0.00 0.00 0.00 48 1015.9
20260507054728 47 191 5.0 7.0 0.00 0.00 0.00 48 1015.9
20260507054545 46 206 4.0 7.0 0.00 0.00 0.00 48 1016.1
20260507054240 47 199 4.0 7.0 0.00 0.00 0.00 48 1015.9
20260507053748 47 194 4.0 6.0 0.00 0.00 0.00 47 1016.0
20260507053233 47 187 4.0 6.0 0.00 0.00 0.00 47 1015.9
20260507053040 46 190 4.0 5.0 0.00 0.00 0.00 47 1016.0
20260507052744 47 167 5.0 6.0 0.00 0.00 0.00 47 1015.9
20260507052255 47 161 4.0 6.0 0.00 0.00 0.00 47 1015.9
20260507051805 47 169 5.0 6.0 0.00 0.00 0.00 47 1015.9
20260507051533 47 179 4.0 6.0 0.00 0.00 0.00 46 1016.1
20260507051229 47 169 4.0 6.0 0.00 0.00 0.00 46 1016.0
20260507050754 47 157 3.0 5.0 0.00 0.00 0.00 45 1016.1
20260507050245 47 157 3.0 5.0 0.00 0.00 0.00 45 1016.1
20260507050016 47 157 3.0 5.0 0.00 0.00 0.00 45 1016.2
20260507045749 48 170 3.0 5.0 0.00 0.00 0.00 45 1016.1
20260507045231 48 147 3.0 4.0 0.00 0.00 0.00 45 1016.1
20260507044741 48 147 2.0 4.0 0.00 0.00 0.00 45 1016.2
20260507044530 47 147 2.0 4.0 0.00 0.00 0.00 45 1016.2
20260507044224 48 147 3.0 5.0 0.00 0.00 0.00 44 1016.2
20260507043754 48 147 3.0 5.0 0.00 0.00 0.00 44 1016.2
20260507043241 48 132 3.0 5.0 0.00 0.00 0.00 44 1016.3
20260507043057 47 132 3.0 4.0 0.00 0.00 0.00 44 1016.3
20260507042753 48 132 3.0 4.0 0.00 0.00 0.00 44 1016.3
20260507042244 48 132 3.0 4.0 0.00 0.00 0.00 43 1016.3
20260507041726 48 132 4.0 4.0 0.00 0.00 0.00 43 1016.3
20260507041538 47 132 3.0 4.0 0.00 0.00 0.00 43 1016.4
20260507041240 48 132 3.0 4.0 0.00 0.00 0.00 43 1016.3
20260507040723 48 132 3.0 5.0 0.00 0.00 0.00 43 1016.3
20260507040236 49 132 3.0 5.0 0.00 0.00 0.00 42 1016.4
20260507040044 48 132 3.0 5.0 0.00 0.00 0.00 42 1016.5
20260507035744 49 169 2.0 4.0 0.00 0.00 0.00 42 1016.4
20260507035237 49 169 2.0 4.0 0.00 0.00 0.00 42 1016.4
20260507034748 49 169 1.0 4.0 0.00 0.00 0.00 42 1016.5
20260507034536 49 169 1.0 4.0 0.00 0.00 0.00 40 1016.7
20260507034234 49 169 2.0 4.0 0.00 0.00 0.00 40 1016.6
20260507033744 49 169 2.0 3.0 0.00 0.00 0.00 39 1016.6
20260507033226 50 169 3.0 4.0 0.00 0.00 0.00 38 1016.6
20260507033036 49 169 2.0 4.0 0.00 0.00 0.00 38 1016.7
20260507032738 50 169 3.0 5.0 0.00 0.00 0.00 38 1016.6
20260507032222 50 169 4.0 4.0 0.00 0.00 0.00 38 1016.7
20260507031729 50 169 4.0 4.0 0.00 0.00 0.00 37 1016.6
20260507031546 50 169 3.0 4.0 0.00 0.00 0.00 37 1016.7
20260507031242 51 169 3.0 4.0 0.00 0.00 0.00 37 1016.6
20260507030754 51 169 4.0 5.0 0.00 0.00 0.00 36 1016.7
20260507030246 51 169 3.0 5.0 0.00 0.00 0.00 36 1016.7
20260507030028 51 169 4.0 4.0 0.00 0.00 0.00 36 1016.7
20260507025728 52 169 4.0 5.0 0.00 0.00 0.00 36 1016.6
20260507025240 52 169 3.0 4.0 0.00 0.00 0.00 36 1016.6
20260507024752 52 169 3.0 5.0 0.00 0.00 0.00 36 1016.6
20260507024524 52 169 3.0 5.0 0.00 0.00 0.00 36 1016.7
20260507024240 52 169 3.0 6.0 0.00 0.00 0.00 35 1016.6
20260507023722 53 173 5.0 6.0 0.00 0.00 0.00 35 1016.5
20260507023235 53 177 2.0 3.0 0.00 0.00 0.00 34 1016.4
20260507023028 52 187 1.0 3.0 0.00 0.00 0.00 34 1016.5
20260507022747 53 187 2.0 3.0 0.00 0.00 0.00 34 1016.4
20260507022229 53 205 2.0 3.0 0.00 0.00 0.00 33 1016.4
20260507021741 53 205 2.0 3.0 0.00 0.00 0.00 32 1016.4
20260507021530 53 205 1.0 3.0 0.00 0.00 0.00 32 1016.5
20260507021226 54 205 2.0 3.0 0.00 0.00 0.00 32 1016.4
20260507020739 54 205 2.0 3.0 0.00 0.00 0.00 32 1016.4
20260507020221 54 205 1.0 3.0 0.00 0.00 0.00 31 1016.4
20260507020046 54 205 2.0 3.0 0.00 0.00 0.00 31 1016.4
20260507015728 55 205 2.0 3.0 0.00 0.00 0.00 31 1016.4
20260507015240 55 205 2.0 3.0 0.00 0.00 0.00 30 1016.4
20260507014725 55 205 2.0 3.0 0.00 0.00 0.00 30 1016.4
20260507014546 55 274 2.0 3.0 0.00 0.00 0.00 30 1016.5
20260507014258 55 274 2.0 3.0 0.00 0.00 0.00 30 1016.4
20260507013722 56 274 2.0 3.0 0.00 0.00 0.00 30 1016.3
20260507013233 56 274 0.0 2.0 0.00 0.00 0.00 30 1016.3
20260507013017 56 274 0.0 2.0 0.00 0.00 0.00 30 1016.3
20260507012800 57 274 1.0 2.0 0.00 0.00 0.00 29 1016.3
20260507012224 57 274 1.0 3.0 0.00 0.00 0.00 29 1016.3
20260507011736 58 274 2.0 3.0 0.00 0.00 0.00 29 1016.3
20260507011506 58 274 0.0 4.0 0.00 0.00 0.00 29 1016.4
20260507011251 58 274 2.0 4.0 0.00 0.00 0.00 29 1016.3
20260507010733 59 274 2.0 4.0 0.00 0.00 0.00 28 1016.3
20260507010243 59 298 2.0 4.0 0.00 0.00 0.00 27 1016.3
20260507010010 59 298 0.0 4.0 0.00 0.00 0.00 27 1016.4
20260507005726 60 298 2.0 4.0 0.00 0.00 0.00 27 1016.3
20260507005238 60 309 2.0 5.0 0.00 0.00 0.00 27 1016.4
20260507004746 60 295 3.0 6.0 0.00 0.00 0.00 27 1016.4
20260507004556 59 299 3.0 10.0 0.00 0.00 0.00 27 1016.5
20260507004240 60 314 3.0 10.0 0.00 0.00 0.00 28 1016.4
20260507003750 60 302 7.0 10.0 0.00 0.00 0.00 27 1016.4
20260507003234 60 318 5.0 10.0 0.00 0.00 0.00 28 1016.4
20260507003057 60 295 4.0 11.0 0.00 0.00 0.00 28 1016.5
20260507002746 60 305 4.0 11.0 0.00 0.00 0.00 27 1016.4
20260507002227 60 351 7.0 11.0 0.00 0.00 0.00 26 1016.5
20260507001740 60 317 4.0 8.0 0.00 0.00 0.00 27 1016.5
20260507001554 60 316 5.0 8.0 0.00 0.00 0.00 27 1016.6
20260507001225 60 326 5.0 9.0 0.00 0.00 0.00 27 1016.5
20260507000731 60 282 5.0 10.0 0.00 0.00 0.00 27 1016.6
20260507000241 60 309 6.0 11.0 0.00 0.00 0.00 27 1016.7
20260507000037 60 271 6.0 11.0 0.00 0.00 0.00 27 1016.8
20260506235721 60 298 6.0 11.0 0.00 0.00 0.00 27 1016.7
20260506235234 60 296 7.0 12.0 0.00 0.00 0.00 27 1016.8
20260506234747 61 260 8.0 13.0 0.00 0.00 0.00 28 1016.8
20260506234546 60 279 8.0 13.0 0.00 0.00 0.00 27 1016.9
20260506234232 61 300 8.0 16.0 0.00 0.00 0.00 27 1016.9
20260506233740 61 260 9.0 16.0 0.00 0.00 0.00 26 1016.9
20260506233224 61 292 10.0 16.0 0.00 0.00 0.00 27 1016.9
20260506233046 61 309 10.0 16.0 0.00 0.00 0.00 27 1017.0
20260506232752 61 311 10.0 16.0 0.00 0.00 0.00 28 1016.8
20260506232243 61 360 3.0 11.0 0.00 0.00 0.00 27 1016.8
20260506231729 61 328 5.0 11.0 0.00 0.00 0.00 28 1016.9
20260506231538 61 286 6.0 11.0 0.00 0.00 0.00 28 1017.1
20260506231242 61 338 7.0 18.0 0.00 0.00 0.00 28 1017.0
20260506230725 61 300 11.0 19.0 0.00 0.00 0.00 29 1017.0
20260506230237 61 278 6.0 19.0 0.00 0.00 0.00 27 1017.0
20260506230041 60 281 11.0 19.0 0.00 0.00 0.00 27 1017.2
20260506225748 61 292 11.0 17.0 0.00 0.00 0.00 27 1017.0
20260506225228 62 292 13.0 17.0 0.00 0.00 0.00 28 1017.0
20260506224740 62 306 7.0 14.0 0.00 0.00 0.00 27 1017.0
20260506224556 62 283 7.0 15.0 0.00 0.00 0.00 29 1017.2
20260506224226 62 288 6.0 18.0 0.00 0.00 0.00 29 1017.1
20260506223758 62 306 10.0 18.0 0.00 0.00 0.00 28 1017.1
20260506223221 62 355 9.0 18.0 0.00 0.00 0.00 26 1017.1
20260506223029 62 336 11.0 20.0 0.00 0.00 0.00 28 1017.3
20260506222733 63 316 9.0 20.0 0.00 0.00 0.00 27 1017.2
20260506222246 62 305 11.0 20.0 0.00 0.00 0.00 26 1017.1
20260506221730 62 309 15.0 20.0 0.00 0.00 0.00 27 1017.2
20260506221531 61 296 9.0 20.0 0.00 0.00 0.00 28 1017.4
20260506221239 62 304 12.0 20.0 0.00 0.00 0.00 27 1017.3
20260506220749 63 313 13.0 20.0 0.00 0.00 0.00 27 1017.3
20260506220232 63 337 8.0 18.0 0.00 0.00 0.00 26 1017.3
20260506220041 63 281 9.0 18.0 0.00 0.00 0.00 28 1017.5
20260506215746 63 284 11.0 21.0 0.00 0.00 0.00 27 1017.4
20260506215235 63 299 11.0 21.0 0.00 0.00 0.00 28 1017.4
20260506214747 63 295 12.0 17.0 0.00 0.00 0.00 27 1017.4
20260506214523 62 303 5.0 19.0 0.00 0.00 0.00 32 1017.6
20260506214232 61 315 9.0 19.0 0.00 0.00 0.00 28 1017.5
20260506213738 61 292 13.0 23.0 0.00 0.00 0.00 27 1017.5
20260506213221 62 301 12.0 23.0 0.00 0.00 0.00 29 1017.6
20260506213033 62 315 9.0 16.0 0.00 0.00 0.00 30 1017.7
20260506212735 63 345 7.0 15.0 0.00 0.00 0.00 29 1017.6
20260506212247 62 283 8.0 17.0 0.00 0.00 0.00 29 1017.7
20260506211740 62 292 6.0 19.0 0.00 0.00 0.00 33 1017.7
20260506211513 61 294 12.0 23.0 0.00 0.00 0.00 30 1018.0
20260506211226 61 5 12.0 23.0 0.00 0.00 0.00 27 1017.7
20260506210736 63 344 12.0 23.0 0.00 0.00 0.00 29 1017.8
20260506210304 62 272 10.0 16.0 0.00 0.00 0.00 30 1017.8
20260506210053 62 266 7.0 16.0 0.00 0.00 0.00 28 1018.1
20260506205726 62 298 6.0 21.0 0.00 0.00 0.00 31 1018.1
20260506205239 62 255 11.0 21.0 0.00 0.00 0.00 29 1018.2
20260506204809 62 306 10.0 19.0 0.00 0.00 0.00 30 1018.1
20260506204531 62 281 8.0 19.0 0.00 0.00 0.00 32 1018.2
20260506204232 62 292 8.0 15.0 0.00 0.00 0.00 32 1018.3
20260506203743 62 328 5.0 22.0 0.00 0.00 0.00 28 1018.3
20260506203227 62 292 13.0 22.0 0.00 0.00 0.00 29 1018.4
20260506203037 62 281 14.0 22.0 0.00 0.00 0.00 28 1018.4
20260506202736 62 304 13.0 20.0 0.00 0.00 0.00 31 1018.5
20260506202243 61 299 8.0 22.0 0.00 0.00 0.00 29 1018.5
20260506201724 63 275 10.0 22.0 0.00 0.00 0.00 30 1018.5
20260506201543 62 306 15.0 22.0 0.00 0.00 0.00 31 1018.7
20260506201237 62 291 12.0 20.0 0.00 0.00 0.00 31 1018.6
20260506200806 61 332 12.0 18.0 0.00 0.00 0.00 29 1018.6
20260506200227 63 335 7.0 19.0 0.00 0.00 0.00 34 1018.6
20260506200019 61 344 8.0 19.0 0.00 0.00 0.00 37 1018.8
20260506195801 60 321 7.0 19.0 0.00 0.00 0.00 35 1018.6
20260506195225 60 279 9.0 17.0 0.00 0.00 0.00 35 1018.7
20260506194732 60 333 10.0 20.0 0.00 0.00 0.00 31 1018.8
20260506194505 59 302 9.0 20.0 0.00 0.00 0.00 32 1018.9
20260506194245 61 293 11.0 20.0 0.00 0.00 0.00 31 1018.8
20260506193729 60 305 13.0 21.0 0.00 0.00 0.00 34 1018.8
20260506193300 60 346 12.0 21.0 0.00 0.00 0.00 31 1018.8
20260506193040 60 315 13.0 21.0 0.00 0.00 0.00 32 1019.0
20260506192723 60 271 8.0 18.0 0.00 0.00 0.00 34 1018.7
20260506192236 62 289 10.0 20.0 0.00 0.00 0.00 32 1018.8
20260506191749 62 312 13.0 20.0 0.00 0.00 0.00 31 1018.8
20260506191551 61 286 15.0 20.0 0.00 0.00 0.00 32 1018.9
20260506191231 60 311 10.0 23.0 0.00 0.00 0.00 33 1018.7
20260506190744 62 278 12.0 25.0 0.00 0.00 0.00 30 1018.8
20260506190235 61 267 16.0 25.0 0.00 0.00 0.00 32 1018.8
20260506190033 61 287 14.0 24.0 0.00 0.00 0.00 33 1019.0
20260506185745 61 248 15.0 24.0 0.00 0.00 0.00 33 1018.8
20260506185227 59 316 14.0 21.0 0.00 0.00 0.00 31 1018.9
20260506184740 58 340 14.0 21.0 0.00 0.00 0.00 32 1019.0
20260506184535 58 5 11.0 18.0 0.00 0.00 0.00 33 1019.2
20260506184225 59 316 10.0 18.0 0.00 0.00 0.00 32 1019.2
20260506183734 59 321 8.0 17.0 0.00 0.00 0.00 36 1019.2
20260506183239 58 288 7.0 20.0 0.00 0.00 0.00 34 1019.3
20260506183044 58 336 7.0 20.0 0.00 0.00 0.00 33 1019.4
20260506182750 59 323 9.0 20.0 0.00 0.00 0.00 35 1019.3
20260506182231 60 345 10.0 15.0 0.00 0.00 0.00 34 1019.3
20260506181743 60 317 5.0 18.0 0.00 0.00 0.00 39 1019.3
20260506181547 58 355 7.0 18.0 0.00 0.00 0.00 39 1019.6
20260506181228 59 355 12.0 18.0 0.00 0.00 0.00 32 1019.4
20260506180800 61 344 12.0 18.0 0.00 0.00 0.00 34 1019.4
20260506180250 60 331 9.0 14.0 0.00 0.00 0.00 39 1019.3
20260506180045 60 250 8.0 17.0 0.00 0.00 0.00 33 1019.6
20260506175739 61 297 7.0 18.0 0.00 0.00 0.00 38 1019.5
20260506175249 60 284 12.0 22.0 0.00 0.00 0.00 34 1019.7
20260506174732 60 288 13.0 22.0 0.00 0.00 0.00 35 1019.6
20260506174549 59 265 9.0 18.0 0.00 0.00 0.00 37 1019.9
20260506174306 59 249 9.0 21.0 0.00 0.00 0.00 37 1019.7
20260506173727 60 251 14.0 21.0 0.00 0.00 0.00 33 1019.8
20260506173259 59 330 13.0 25.0 0.00 0.00 0.00 35 1019.9
20260506173002 59 296 14.0 25.0 0.00 0.00 0.00 34 1020.1
20260506172745 60 298 13.0 25.0 0.00 0.00 0.00 33 1019.9
20260506172226 59 282 13.0 20.0 0.00 0.00 0.00 35 1019.9
20260506171739 59 322 7.0 15.0 0.00 0.00 0.00 38 1020.1
20260506171508 58 309 10.0 15.0 0.00 0.00 0.00 39 1020.3
20260506171254 56 338 6.0 11.0 0.00 0.00 0.00 42 1020.2
20260506170745 56 265 7.0 14.0 0.00 0.00 0.00 38 1020.2
20260506170228 57 292 7.0 19.0 0.00 0.00 0.00 37 1020.2
20260506170048 57 347 7.0 19.0 0.00 0.00 0.00 43 1020.3
20260506165739 57 329 7.0 19.0 0.00 0.00 0.00 36 1020.2
20260506165221 58 333 13.0 19.0 0.00 0.00 0.00 38 1020.2
20260506164728 57 315 9.0 18.0 0.00 0.00 0.00 37 1020.3
20260506164559 56 328 8.0 19.0 0.00 0.00 0.00 39 1020.4
20260506164242 56 312 11.0 20.0 0.00 0.00 0.00 38 1020.4